(114220) = 2002 VJ112

Discovered at Socorro on 2002-11-13 by LINEAR.

Orbit

Orbit type: Main Belt

Note: WebGL enabled browser required.

epoch2023-09-13.0
epoch JD2460200.5
perihelion date2020-06-22.00357
perihelion JD2459022.50357
argument of perihelion (°)259.34696
ascending node (°)77.10639
inclination (°)7.21891
eccentricity0.1358096
perihelion distance (AU)2.0532586
Tisserand w.r.t. Jupiter3.5
ΔV w.r.t. Earth (km/sec)9.2
semimajor axis (AU)2.3759332
mean anomaly (°)317.02716
mean daily motion (°/day)0.26912400
aphelion distance (AU)2.699
period (years)3.66
P-vector [x]0.90914137
P-vector [y]-0.31581184
P-vector [z]-0.27152321
Q-vector [x]0.39806733
Q-vector [y]0.85062825
Q-vector [z]0.34347340
absolute magnitude16.36
phase slope0.15
uncertainty0
referenceMPEC 2024-A48
observations used706
oppositions17
arc length (days)9043
first opposition used1998
last opposition used2023
residual rms (arc-secs)0.71
perturbers coarse indicatorM-v
perturbers precise indicator003Ek
first observation date used1998-09-21.0
last observation date used2023-06-25.0
computer nameMPCLINUX
JD of orbit computation2456700.170578
perihelion JD uncertainty (days)9.1635E-05
argument of perihelion uncertainty (°)4.2419E-05
ascending node uncertainty (°)3.5010E-05
inclination uncertainty (°)6.0489E-06
eccentricity uncertainty 3.9050E-08
perihelion distance uncertainty (AU)9.3702E-08
Minimum Orbit Intersection Distances (in AU)
for orbit epoch: 2460200.5, reference: E2024-A48
Mercury1.64714
Venus1.32789
Earth1.05768
Mars0.68898
Jupiter2.64764
Saturn6.50588
Uranus15.7705
Neptune27.5703

Observations

715 total observations over interval: 1998 09 21.35415 – 2023 06 25.364438
These data are available for download (format description).

Date (UT) J2000 RA J2000 Dec Magn Location Ref
1998 09 21.35415 01 08 37.98 -06 43 08.3 18.5 R 699 – Lowell Observatory-LONEOS MPS 103848
1998 09 21.39044 01 08 36.13 -06 43 20.3   699 – Lowell Observatory-LONEOS MPS 103848
1998 09 21.41576 01 08 34.75 -06 43 26.5   699 – Lowell Observatory-LONEOS MPS 103848
2002 11 06.33816 04 40 45.97 +18 28 16.3 19.6   704 – Lincoln Laboratory ETS, New Mexico MPS 70057
2002 11 06.35496 04 40 45.07 +18 28 16.6 19.4   704 – Lincoln Laboratory ETS, New Mexico MPS 70057
2002 11 06.37176 04 40 44.19 +18 28 17.7 19.2   704 – Lincoln Laboratory ETS, New Mexico MPS 70057
2002 11 06.38857 04 40 43.28 +18 28 18.1 19.4   704 – Lincoln Laboratory ETS, New Mexico MPS 70057
2002 11 13.33170 04 34 14.09 +18 35 03.4 19.6   704 – Lincoln Laboratory ETS, New Mexico MPS 66525
2002 11 13.34907 04 34 13.07 +18 35 03.5 19.2   704 – Lincoln Laboratory ETS, New Mexico MPS 66525
2002 11 13.36670 04 34 11.88 +18 35 04.7 19.3   704 – Lincoln Laboratory ETS, New Mexico MPS 66525
2002 11 13.38462 04 34 10.73 +18 35 05.9 19.6   704 – Lincoln Laboratory ETS, New Mexico MPS 66525
2002 11 14.31949 04 33 13.55 +18 35 58.5 19.2   704 – Lincoln Laboratory ETS, New Mexico MPS 66525
2002 11 14.32998 04 33 12.90 +18 35 59.7 18.9   704 – Lincoln Laboratory ETS, New Mexico MPS 66525
2002 11 14.33408 04 33 12.58 +18 35 59.8 18.9   704 – Lincoln Laboratory ETS, New Mexico MPS 66525
2002 11 14.33676 04 33 12.41 +18 36 00.2 19.2   704 – Lincoln Laboratory ETS, New Mexico MPS 66525
2002 11 14.34773 04 33 11.68 +18 36 01.2 19.2   704 – Lincoln Laboratory ETS, New Mexico MPS 66525
2002 11 14.35182 04 33 11.44 +18 36 00.2 19.6   704 – Lincoln Laboratory ETS, New Mexico MPS 66525
2002 11 14.36959 04 33 10.25 +18 36 01.9 19.4   704 – Lincoln Laboratory ETS, New Mexico MPS 66525
2002 11 14.37093 04 33 10.25 +18 36 02.5 19.4   704 – Lincoln Laboratory ETS, New Mexico MPS 66525
2002 11 14.38315 04 33 09.54 +18 36 02.0 19.6   704 – Lincoln Laboratory ETS, New Mexico MPS 66525
2002 11 14.38725 04 33 09.20 +18 36 02.3 19.7   704 – Lincoln Laboratory ETS, New Mexico MPS 66525
2002 11 14.38811 04 33 09.14 +18 36 02.3 19.5   704 – Lincoln Laboratory ETS, New Mexico MPS 66525
2002 11 14.40087 04 33 08.36 +18 36 03.3 19.4   704 – Lincoln Laboratory ETS, New Mexico MPS 66525
2002 11 14.40505 04 33 08.03 +18 36 03.9 19.1   704 – Lincoln Laboratory ETS, New Mexico MPS 66525
2002 11 24.33320 04 22 11.25 +18 44 45.7 18.7   644 – Palomar Mountain/NEAT MPS 70057
2002 11 24.35427 04 22 09.75 +18 44 46.6 18.8   644 – Palomar Mountain/NEAT MPS 70057
2002 11 24.37732 04 22 08.11 +18 44 47.8 19.1   644 – Palomar Mountain/NEAT MPS 70057
2002 11 27.29972 04 18 46.17 +18 47 14.3 18.5 R 699 – Lowell Observatory-LONEOS MPS 68302
2002 11 27.31592 04 18 45.00 +18 47 16.1   699 – Lowell Observatory-LONEOS MPS 68302
2002 11 27.33191 04 18 43.85 +18 47 16.9   699 – Lowell Observatory-LONEOS MPS 68302
2002 11 27.34790 04 18 42.73 +18 47 16.9   699 – Lowell Observatory-LONEOS MPS 68302
2002 11 28.17909 04 17 45.58 +18 47 58.2 18.6 R 699 – Lowell Observatory-LONEOS MPS 68302
2002 11 28.19520 04 17 44.43 +18 47 59.3   699 – Lowell Observatory-LONEOS MPS 68302
2002 11 28.21128 04 17 43.25 +18 47 58.9   699 – Lowell Observatory-LONEOS MPS 68302
2002 11 28.22740 04 17 42.14 +18 48 00.5   699 – Lowell Observatory-LONEOS MPS 68302
2002 12 03.56315 04 11 36.59 +18 52 31.4 20.4   608 – Haleakala-AMOS MPS 68302
2002 12 03.57386 04 11 35.87 +18 52 32.0 20.3   608 – Haleakala-AMOS MPS 68302
2002 12 03.58442 04 11 35.16 +18 52 32.2 20.8   608 – Haleakala-AMOS MPS 68302
2002 12 05.22190 04 09 46.43 +18 53 59.4 19.0   704 – Lincoln Laboratory ETS, New Mexico MPS 68302
2002 12 05.23726 04 09 45.38 +18 54 00.0 18.8   704 – Lincoln Laboratory ETS, New Mexico MPS 68302
2002 12 05.25255 04 09 44.36 +18 54 00.3 19.2   704 – Lincoln Laboratory ETS, New Mexico MPS 68302
2002 12 05.26779 04 09 43.33 +18 54 01.8 19.3   704 – Lincoln Laboratory ETS, New Mexico MPS 68302
2002 12 10.22298 04 04 27.67 +18 58 42.6 19.4   704 – Lincoln Laboratory ETS, New Mexico MPS 68302
2002 12 10.23843 04 04 26.70 +18 58 43.7 19.4   704 – Lincoln Laboratory ETS, New Mexico MPS 68302
2002 12 10.25375 04 04 25.68 +18 58 45.1 19.9   704 – Lincoln Laboratory ETS, New Mexico MPS 68302
2002 12 10.26907 04 04 24.75 +18 58 46.2 20.1   704 – Lincoln Laboratory ETS, New Mexico MPS 68302
2002 12 10.28442 04 04 23.77 +18 58 47.0 19.7   704 – Lincoln Laboratory ETS, New Mexico MPS 68302
2002 12 31.15520 03 48 50.55 +19 29 04.3 19.4   704 – Lincoln Laboratory ETS, New Mexico MPS 70057
2002 12 31.17013 03 48 50.14 +19 29 06.1 19.8   704 – Lincoln Laboratory ETS, New Mexico MPS 70057
2002 12 31.18504 03 48 49.76 +19 29 08.1 19.9   704 – Lincoln Laboratory ETS, New Mexico MPS 70057
2002 12 31.20007 03 48 49.29 +19 29 09.6 19.8   704 – Lincoln Laboratory ETS, New Mexico MPS 70057
2002 12 31.21501 03 48 48.92 +19 29 10.7 19.4   704 – Lincoln Laboratory ETS, New Mexico MPS 70057
2004 03 15.36597 11 45 40.88 +13 58 34.7 20.3 V 691 – Steward Observatory, Kitt Peak-Spacewatch MPS 103136
2004 03 15.39397 11 45 39.21 +13 58 44.2 20.3 V 691 – Steward Observatory, Kitt Peak-Spacewatch MPS 103136
2004 03 15.42287 11 45 37.49 +13 58 54.0 20.4 V 691 – Steward Observatory, Kitt Peak-Spacewatch MPS 103136
2004 03 23.27809 11 38 06.97 +14 39 15.4 20.0   704 – Lincoln Laboratory ETS, New Mexico MPS 103136
2004 03 23.28467 11 38 06.49 +14 39 16.2 19.7   704 – Lincoln Laboratory ETS, New Mexico MPS 103136
2004 03 23.28859 11 38 06.41 +14 39 18.1 20.2   704 – Lincoln Laboratory ETS, New Mexico MPS 103136
2004 03 23.29793 11 38 05.80 +14 39 19.8 20.3   704 – Lincoln Laboratory ETS, New Mexico MPS 103136
2004 03 23.29926 11 38 05.78 +14 39 20.1 20.2   704 – Lincoln Laboratory ETS, New Mexico MPS 103136
2004 03 23.30939 11 38 05.03 +14 39 23.5 20.1   704 – Lincoln Laboratory ETS, New Mexico MPS 103136
2004 03 23.31008 11 38 05.18 +14 39 23.5 20.7   704 – Lincoln Laboratory ETS, New Mexico MPS 103136
2004 03 23.32090 11 38 04.52 +14 39 26.4 20.6   704 – Lincoln Laboratory ETS, New Mexico MPS 103136
2004 03 23.33155 11 38 03.91 +14 39 30.2 20.4   704 – Lincoln Laboratory ETS, New Mexico MPS 103136
2004 03 27.31880 11 34 24.01 +14 55 49.0 20.2 V 691 – Steward Observatory, Kitt Peak-Spacewatch MPS 103136
2004 03 27.34793 11 34 22.39 +14 55 55.3 20.4 V 691 – Steward Observatory, Kitt Peak-Spacewatch MPS 103136
2004 03 27.37496 11 34 20.88 +14 56 01.7 20.8 V 691 – Steward Observatory, Kitt Peak-Spacewatch MPS 103136
2004 04 14.26455 11 20 58.62 +15 29 17.9 20.7 V 291 – LPL/Spacewatch II MPS 104293
2004 04 14.26957 11 20 58.45 +15 29 17.9 20.7 V 291 – LPL/Spacewatch II MPS 104293
2004 04 14.27353 11 20 58.32 +15 29 17.9 20.9 V 291 – LPL/Spacewatch II MPS 104293
2005 07 10.65020 20 47 55.53 -27 07 12.1 18.5 V E12 – Siding Spring Survey MPS 137952
2005 07 10.66230 20 47 54.85 -27 07 17.5 18.4 V E12 – Siding Spring Survey MPS 137952
2005 07 10.67417 20 47 54.45 -27 07 23.4 18.4 V E12 – Siding Spring Survey MPS 137952
2005 07 10.68607 20 47 53.88 -27 07 29.3 18.6 V E12 – Siding Spring Survey MPS 137952
2005 07 29.66115 20 31 18.26 -29 33 05.4 18.1 V E12 – Siding Spring Survey MPS 138626
2005 07 29.67208 20 31 17.54 -29 33 09.9 18.6 V E12 – Siding Spring Survey MPS 138626
2005 07 29.68300 20 31 16.89 -29 33 13.3 18.4 V E12 – Siding Spring Survey MPS 138626
2005 07 29.69392 20 31 16.24 -29 33 18.0 18.3 V E12 – Siding Spring Survey MPS 138626
2005 08 12.60233 20 18 20.80 -30 43 39.2 18.8 V E12 – Siding Spring Survey MPS 139639
2005 08 12.61201 20 18 20.16 -30 43 41.8 18.3 V E12 – Siding Spring Survey MPS 139639
2005 08 12.62145 20 18 19.80 -30 43 43.1 18.1 V E12 – Siding Spring Survey MPS 139639
2005 08 24.51066 20 10 25.42 -31 08 18.8 19.0 V E12 – Siding Spring Survey MPS 139639
2005 08 24.52492 20 10 24.85 -31 08 17.9 18.2 V E12 – Siding Spring Survey MPS 139639
2005 08 24.53889 20 10 24.52 -31 08 18.3 18.1 V E12 – Siding Spring Survey MPS 139639
2005 08 24.55281 20 10 24.09 -31 08 20.2 18.8 V E12 – Siding Spring Survey MPS 139639
2006 09 24.44004 07 05 14.05 +23 05 19.2 21.4 V 691 – Steward Observatory, Kitt Peak-Spacewatch MPS 182332
2006 09 24.45257 07 05 15.05 +23 05 19.6 21.4 V 691 – Steward Observatory, Kitt Peak-Spacewatch MPS 182332
